Location: Prairie View Elementary School
(39.8322°N, 99.5698°W)
Time: 05:43:45
(UTC+00:00)

Aureole 1 Rocket - Pass Details

Date: 08 December 2019
Orbit: 378 x 1382 km, 73.9° (Epoch: 19 January)

Event Time Altitude Azimuth Distance (km) Brightness Sun altitude
Rises 00:06:11 0° 166° (SSE) 2,306 6.1 -10.0°
Reaches altitude 10° 00:08:40 10° 144° (SE) 1,403 4.8 -10.5°
Maximum altitude 00:10:42 17° 101° (E) 1,057 3.8 -10.8°
Enters shadow 00:11:11 16° 88° (E) 1,080 3.7 -10.9°
